Temp
44 44 45 46 46 46 45 46 48 49 51 53 55 59 61 60 59 59 58 57 57 56
44 43 44 45 47 48 47 48 48 49 50 52 54 55 59 58 57 58 57 56 56 55
43 43 44 46 45 47 47 49 48 49 50 51 53 54 57 57 57 56 56 56 56 55
42 42 44 44 45 45 46 48 49 49 49 50 51 53 55 56 56 55 54 53 54 51
41 42 42 42 43 44 45 47 47 48 48 48 48 50 53 52 52 51 49 49 49 48
40 40 39 40 41 42 43 45 45 45 45 45 46 47 47 48 47 46 46 47 47 47
39 39 39 39 40 40 42 42 43 43 43 44 44 44 45 45 44 43 42 41 41 42
40 40 39 38 38 39 39 40 41 41 42 42 42 43 43 43 42 41 39 39 39 38
38 39 37 38 37 38 38 39 39 39 39 39 41 41 41 42 41 41 40 38 37 38
33 32 36 36 37 36 36 37 37 38 38 37 39 41 41 40 41 40 38 36 35 34
34 31 31 33 36 37 37 36 36 36 38 37 38 40 41 39 38 36 35 34 34 34
33 32 33 32 32 32 32 34 35 35 36 35 36 39 40 38 35 33 32 33 33 32
32 32 32 32 31 32 31 32 31 32 32 33 33 38 39 38 33 31 31 31 32 33
32 32 32 31 31 31 31 31 28 29 30 30 32 34 38 39 32 31 30 30 29 30
MSLP
1020.01 1019.53 1019.17 1019.13 1019.06 1019.20 1019.19 1018.75 1018.82 1018.22 1018.11 1017.89 1017.43 1017.04 1017.31 1017.84 1018.50 1018.99 1019.33 1019.60 1020.00 1020.31
1020.01 1019.87 1019.71 1019.63 1019.30 1019.26 1019.22 1018.91 1018.87 1018.65 1018.59 1017.98 1017.57 1017.38 1017.44 1017.87 1018.48 1018.86 1019.33 1019.70 1019.96 1020.33
1020.35 1020.25 1020.06 1019.69 1019.83 1019.80 1019.49 1019.14 1019.03 1018.87 1018.27 1018.22 1017.89 1017.65 1017.79 1018.02 1018.48 1018.90 1019.24 1019.64 1019.94 1020.22
1020.75 1020.47 1020.21 1020.24 1020.18 1019.96 1019.65 1019.15 1018.88 1018.83 1018.73 1018.69 1018.40 1018.12 1017.96 1018.09 1018.42 1018.84 1019.29 1019.65 1020.05 1020.42
1020.89 1020.94 1021.12 1020.90 1020.64 1020.34 1019.88 1019.48 1019.29 1019.30 1019.16 1018.93 1018.74 1018.51 1018.47 1018.75 1018.94 1019.29 1020.05 1020.35 1020.68 1021.01
1021.21 1021.31 1021.28 1021.07 1020.95 1020.75 1020.35 1019.94 1019.86 1019.53 1019.36 1019.34 1019.20 1019.18 1019.38 1019.40 1019.89 1020.38 1020.71 1020.81 1021.03 1021.34
1021.39 1021.28 1021.40 1021.47 1021.24 1020.85 1020.55 1020.44 1020.20 1020.04 1019.81 1019.68 1019.78 1019.80 1020.06 1020.28 1020.74 1021.05 1021.42 1021.56 1021.80 1022.06
1021.54 1021.71 1021.70 1021.52 1021.24 1021.10 1020.84 1020.72 1020.74 1020.44 1020.33 1020.54 1020.30 1020.51 1020.60 1020.95 1021.42 1021.62 1022.21 1022.57 1022.67 1022.95
1021.92 1021.97 1022.03 1021.90 1021.73 1021.60 1021.41 1021.21 1021.07 1021.11 1021.01 1021.23 1021.03 1021.16 1021.18 1021.42 1021.86 1022.39 1022.82 1023.18 1023.35 1023.58
1022.30 1022.25 1022.09 1021.93 1021.98 1022.16 1022.25 1022.03 1021.92 1021.85 1021.67 1021.74 1021.89 1021.72 1021.79 1022.05 1022.45 1022.73 1023.11 1023.40 1023.81 1023.90
1022.35 1022.35 1022.16 1022.20 1022.22 1022.25 1022.31 1022.46 1022.57 1022.64 1022.57 1022.65 1022.93 1022.66 1022.58 1022.59 1022.83 1023.35 1023.51 1023.74 1023.98 1024.11
1022.57 1022.57 1022.55 1022.61 1022.64 1022.71 1022.62 1022.60 1022.82 1023.01 1023.14 1023.32 1023.38 1023.15 1023.11 1023.18 1023.47 1023.97 1024.23 1024.29 1024.46 1024.70
1022.86 1023.03 1023.05 1022.90 1022.94 1022.98 1023.08 1023.25 1023.31 1023.44 1023.46 1023.50 1023.52 1023.38 1023.17 1023.31 1023.68 1024.26 1024.62 1024.80 1024.89 1024.92
1022.96 1023.18 1023.35 1023.45 1023.48 1023.41 1023.45 1023.64 1023.53 1023.39 1023.49 1023.52 1023.57 1023.48 1023.31 1023.35 1023.71 1024.10 1024.58 1024.89 1025.26 1025.50
Wind_Speed
5 3 3 5 3 2 3 4 5 6 6 6 4 2 6 5 5 4 4 5 3 3
5 6 5 5 5 3 2 3 5 5 5 6 5 4 2 4 5 4 4 3 3 3
5 5 4 5 5 5 4 2 3 4 5 6 5 3 3 4 4 4 3 3 3 3
5 6 6 4 5 5 6 6 6 5 5 5 5 3 1 4 5 6 4 4 4 4
4 5 4 4 5 5 5 4 5 5 4 5 5 5 4 5 6 6 6 5 5 5
5 4 4 4 4 4 4 4 3 4 5 5 6 6 6 7 7 7 6 5 6 5
4 5 5 4 3 4 4 4 4 4 5 6 6 6 6 7 8 8 8 8 8 6
4 4 4 5 6 5 5 5 5 6 7 7 7 4 7 7 7 9 9 7 9 8
3 4 4 5 6 6 6 5 6 7 7 7 6 11 11 9 7 7 7 7 7 6
3 4 4 4 6 6 6 6 7 7 7 8 6 10 10 9 6 6 6 6 5 6
4 4 3 4 5 5 4 5 4 6 6 7 6 9 9 10 6 6 6 6 5 6
1 2 3 4 5 3 4 5 5 4 6 5 5 9 8 6 6 6 6 5 6 5
2 2 2 4 4 2 3 4 3 5 5 5 5 7 8 6 3 5 3 4 5 9
3 2 2 2 1 3 5 4 3 5 4 5 4 4 7 7 3 3 4 4 3 2
Wind_Direction
321 360 4 25 7 340 333 348 338 360 347 337 337 297 166 162 167 171 173 156 148 174
2 16 8 354 353 354 318 357 340 342 320 345 342 338 186 134 150 138 145 156 185 180
360 3 360 6 356 342 342 335 335 340 6 343 333 338 253 145 152 160 139 159 199 197
11 2 0 359 356 359 329 348 6 4 4 338 351 337 121 139 154 139 140 110 137 90
36 26 5 0 353 341 343 358 1 358 5 12 12 359 71 78 56 76 81 87 96 103
33 30 17 10 353 344 344 18 25 34 42 28 30 41 48 73 77 78 72 76 88 82
30 24 10 355 3 16 14 23 34 42 56 56 69 71 76 87 90 81 73 61 58 50
61 41 22 12 10 15 32 39 35 48 54 49 55 56 79 82 93 89 83 78 75 64
87 96 62 32 25 22 28 34 49 60 68 61 59 80 88 90 94 100 100 95 81 82
100 81 69 77 73 43 32 27 36 50 63 64 55 77 94 92 91 95 99 102 106 90
151 123 115 69 82 92 86 65 52 46 54 67 55 54 81 86 90 91 87 100 115 107
157 144 114 96 99 67 82 97 89 65 61 73 62 51 64 78 82 80 82 76 84 100
163 177 165 148 131 110 107 94 76 82 80 84 86 51 53 93 104 105 83 72 67 102
153 162 161 128 40 140 125 101 95 108 105 95 97 101 99 103 117 127 116 104 94 78